Inquirer Daily News

Weather

Get conditions and forecasts for any City, State, ZIP code or Country:  
Northeast Philadelphia, PA
on Saturday, February 16, 2013

Saturday
Previous Day Next Day
Daily Summary
 ActualAverage (KTTN)Record (KTTN)
Temperature
Mean Temperature °F 34°F  
Max Temperature 37°F 42°F 72°F (1954)
Min Temperature 30°F 26°F 1°F (1888)
Degree Days
Heating Degree Days 32 31  
Month to date heating degree days 514  
Since 1 July heating degree days 3460  
Cooling Degree Days 0 0  
Month to date cooling degree days 0  
Year to date cooling degree days 0  
Moisture
Dew Point 27°F   
Average Humidity 74    
Maximum Humidity 93    
Minimum Humidity 47    
Precipitation
Precipitation 0.03 in 0.09 in 0.90 in (2003)
Month to date precipitation 1.24  
Year to date precipitation 4.40  
Wind
Wind Speed 8 mph   
Max Wind Speed 17 mph   
Max Gust Speed 24 mph   
Visibility 9 miles   
Events Rain   

Key: T is trace of precipitation, MM is missing value
Source: NWS Daily Summary
Time(EST)TemperatureDew PointHumidity Pressure Visibility Wind DirectionWind SpeedGust SpeedPrecipitationEvents Conditions
12:43 AM 37.4°F 33.8°F 87% 30.00 in 8.0 miles NW 6.9 mph - 0.01 in Rain Light Rain
12:54 AM 36.0°F 34.0°F 93% 30.00 in 7.0 miles NNW 10.4 mph - 0.01 in Rain Light Rain
1:54 AM 36.0°F 34.0°F 93% 29.99 in 8.0 miles NW 5.8 mph - 0.01 in   Overcast
2:06 AM 35.6°F 33.8°F 93% 29.99 in 8.0 miles NW 4.6 mph - N/A   Overcast
2:28 AM 35.6°F 33.8°F 93% 29.99 in 8.0 miles NW 5.8 mph - 0.00 in Rain Light Rain
2:54 AM 35.1°F 33.1°F 92% 29.97 in 8.0 miles North 6.9 mph - 0.01 in Rain Light Rain
3:29 AM 35.6°F 33.8°F 93% 29.96 in 7.0 miles North 3.5 mph - 0.00 in   Overcast
3:36 AM 35.6°F 30.2°F 81% 29.97 in 8.0 miles NNW 4.6 mph - 0.00 in   Overcast
3:43 AM 35.6°F 33.8°F 93% 29.96 in 8.0 miles NW 4.6 mph - 0.00 in   Overcast
3:54 AM 35.1°F 33.1°F 92% 29.96 in 8.0 miles North 5.8 mph - 0.00 in   Overcast
4:06 AM 35.6°F 33.8°F 93% 29.96 in 8.0 miles NW 4.6 mph - N/A   Overcast
4:54 AM 35.1°F 33.1°F 92% 29.97 in 8.0 miles NNW 3.5 mph - N/A   Overcast
5:44 AM 35.6°F 33.8°F 93% 29.96 in 10.0 miles NNW 5.8 mph - N/A   Overcast
5:54 AM 36.0°F 33.1°F 89% 29.96 in 10.0 miles NNW 5.8 mph - N/A   Overcast
6:02 AM 35.6°F 33.8°F 93% 29.96 in 10.0 miles North 5.8 mph - N/A   Overcast
6:54 AM 35.1°F 32.0°F 89% 29.96 in 10.0 miles North 10.4 mph - N/A   Overcast
7:54 AM 35.1°F 30.0°F 82% 29.99 in 10.0 miles North 11.5 mph - N/A   Overcast
8:54 AM 35.1°F 27.0°F 72% 29.97 in 10.0 miles North 11.5 mph - N/A   Overcast
9:08 AM 35.6°F 26.6°F 70% 29.96 in 10.0 miles North 12.7 mph - N/A   Overcast
9:36 AM 35.6°F 26.6°F 70% 29.97 in 10.0 miles North 12.7 mph - N/A   Overcast
9:54 AM 36.0°F 26.1°F 67% 29.97 in 10.0 miles North 10.4 mph - N/A   Overcast
10:54 AM 37.0°F 25.0°F 62% 29.96 in 10.0 miles NNE 10.4 mph - N/A   Overcast
11:54 AM 37.9°F 21.9°F 53% 29.94 in 10.0 miles NNE 8.1 mph - N/A   Mostly Cloudy
12:54 PM 37.9°F 23.0°F 55% 29.91 in 10.0 miles North 11.5 mph - N/A   Mostly Cloudy
1:54 PM 37.9°F 24.1°F 57% 29.90 in 10.0 miles NNW 9.2 mph - N/A   Mostly Cloudy
2:54 PM 37.0°F 23.0°F 57% 29.90 in 10.0 miles North 10.4 mph - N/A   Overcast
3:54 PM 36.0°F 25.0°F 64% 29.88 in 10.0 miles North 10.4 mph - N/A   Overcast
4:54 PM 35.1°F 24.1°F 64% 29.88 in 10.0 miles North 10.4 mph - N/A   Overcast
5:54 PM 35.1°F 21.9°F 59% 29.88 in 10.0 miles North 10.4 mph - N/A   Overcast
6:54 PM 34.0°F 21.0°F 59% 29.86 in 10.0 miles NNW 11.5 mph - N/A   Overcast
7:54 PM 33.1°F 18.0°F 54% 29.85 in 10.0 miles North 15.0 mph 23.0 mph N/A   Overcast
8:54 PM 32.0°F 16.0°F 52% 29.85 in 10.0 miles NNW 11.5 mph - N/A   Overcast
9:54 PM 32.0°F 16.0°F 52% 29.83 in 10.0 miles North 17.3 mph 21.9 mph N/A   Overcast
10:54 PM 30.9°F 15.1°F 52% 29.81 in 10.0 miles North 13.8 mph 24.2 mph N/A   Overcast
11:54 PM 30.0°F 12.0°F 47% 29.79 in 10.0 miles North 16.1 mph 20.7 mph N/A   Overcast
Astronomy
Sunrise:06:51 AM (EST) Moon Rise:10:02 AM (EST)2/16
Sunset:05:37 PM (EST) Moon Set:No Moon Set/
Moon Phase
Feb. 16 Feb. 17 Feb. 25 Mar. 04 Mar. 11

Copyright © 2014 The Weather Underground, Inc.